| time (UTC) | temp F | wind direction | speed MPH | gust MPH | rain 1hr in | rain 24hr in | rain mn in | humidity % | barometer mb |
| 20260906233003 | 80 | 220 | 2.0 | 10.0 | 0.00 | 0.00 | 0.00 | 27 | 1000.2 |
| 20260906232002 | 80 | 254 | 0.0 | 8.0 | 0.00 | 0.00 | 0.00 | 29 | 1000.2 |
| 20260906231002 | 80 | 223 | 1.0 | 13.0 | 0.00 | 0.00 | 0.00 | 27 | 1000.7 |
| 20260906230002 | 80 | 242 | 3.0 | 16.0 | 0.00 | 0.00 | 0.00 | 27 | 1000.7 |
| 20260906224002 | 81 | 237 | 3.0 | 16.0 | 0.00 | 0.00 | 0.00 | 26 | 1001.1 |
| 20260906223003 | 81 | 150 | 1.0 | 16.0 | 0.00 | 0.00 | 0.00 | 25 | 1001.1 |
| 20260906222003 | 82 | 207 | 3.0 | 11.0 | 0.00 | 0.00 | 0.00 | 26 | 1000.8 |
| 20260906221002 | 82 | 279 | 5.0 | 12.0 | 0.00 | 0.00 | 0.00 | 23 | 1000.9 |
| 20260906220003 | 82 | 217 | 3.0 | 11.0 | 0.00 | 0.00 | 0.00 | 24 | 1000.9 |
| 20260906215003 | 83 | 275 | 3.0 | 22.0 | 0.00 | 0.00 | 0.00 | 24 | 1000.5 |
| 20260906214003 | 83 | 231 | 1.0 | 24.0 | 0.00 | 0.00 | 0.00 | 28 | 1000.8 |
| 20260906213024 | 83 | 236 | 4.0 | 18.0 | 0.00 | 0.00 | 0.00 | 26 | 1000.8 |
| 20260906212003 | 83 | 234 | 1.0 | 11.0 | 0.00 | 0.00 | 0.00 | 28 | 1000.8 |
| 20260906211004 | 83 | 228 | 6.0 | 17.0 | 0.00 | 0.00 | 0.00 | 25 | 1000.9 |
| 20260906210004 | 83 | 46 | 3.0 | 9.0 | 0.00 | 0.00 | 0.00 | 24 | 1000.9 |
| 20260906205003 | 83 | 81 | 0.0 | 7.0 | 0.00 | 0.00 | 0.00 | 27 | 1001.0 |
| 20260906204003 | 83 | 93 | 1.0 | 8.0 | 0.00 | 0.00 | 0.00 | 25 | 1001.3 |
| 20260906203003 | 82 | 225 | 1.0 | 5.0 | 0.00 | 0.00 | 0.00 | 26 | 1001.3 |
| 20260906202003 | 82 | 215 | 0.0 | 14.0 | 0.00 | 0.00 | 0.00 | 26 | 1001.9 |
| 20260906201002 | 82 | 242 | 10.0 | 20.0 | 0.00 | 0.00 | 0.00 | 24 | 1001.6 |
| 20260906200003 | 82 | 17 | 0.0 | 11.0 | 0.00 | 0.00 | 0.00 | 27 | 1001.6 |
| 20260906195004 | 83 | 238 | 3.0 | 14.0 | 0.00 | 0.00 | 0.00 | 26 | 1002.1 |
| 20260906194003 | 83 | 221 | 4.0 | 11.0 | 0.00 | 0.00 | 0.00 | 26 | 1002.1 |
| 20260906193002 | 83 | 224 | 2.0 | 7.0 | 0.00 | 0.00 | 0.00 | 26 | 1002.1 |
| 20260906192003 | 84 | 143 | 0.0 | 5.0 | 0.00 | 0.00 | 0.00 | 27 | 1001.9 |
| 20260906191003 | 84 | 238 | 0.0 | 12.0 | 0.00 | 0.00 | 0.00 | 24 | 1002.0 |
| 20260906190003 | 83 | 244 | 6.0 | 14.0 | 0.00 | 0.00 | 0.00 | 25 | 1002.0 |
| 20260906185002 | 83 | 225 | 3.0 | 19.0 | 0.00 | 0.00 | 0.00 | 24 | 1002.4 |
| 20260906184003 | 82 | 223 | 0.0 | 6.0 | 0.00 | 0.00 | 0.00 | 24 | 1002.5 |
| 20260906183003 | 82 | 234 | 8.0 | 24.0 | 0.00 | 0.00 | 0.00 | 23 | 1002.5 |
| 20260906182002 | 82 | 228 | 2.0 | 19.0 | 0.00 | 0.00 | 0.00 | 23 | 1002.8 |
| 20260906181003 | 82 | 225 | 8.0 | 18.0 | 0.00 | 0.00 | 0.00 | 22 | 1003.2 |
| 20260906180003 | 82 | 243 | 3.0 | 12.0 | 0.00 | 0.00 | 0.00 | 24 | 1003.2 |
| 20260906175003 | 81 | 206 | 3.0 | 16.0 | 0.00 | 0.00 | 0.00 | 21 | 1003.4 |
| 20260906174002 | 81 | 202 | 2.0 | 14.0 | 0.00 | 0.00 | 0.00 | 21 | 1003.8 |
| 20260906173003 | 81 | 224 | 1.0 | 21.0 | 0.00 | 0.00 | 0.00 | 21 | 1003.8 |
| 20260906172003 | 81 | 208 | 0.0 | 9.0 | 0.00 | 0.00 | 0.00 | 22 | 1003.7 |
| 20260906171002 | 81 | 233 | 0.0 | 14.0 | 0.00 | 0.00 | 0.00 | 24 | 1003.8 |
| 20260906170003 | 80 | 243 | 2.0 | 13.0 | 0.00 | 0.00 | 0.00 | 24 | 1003.8 |
| 20260906165004 | 80 | 179 | 1.0 | 16.0 | 0.00 | 0.00 | 0.00 | 24 | 1003.9 |
| 20260906164003 | 79 | 199 | 2.0 | 18.0 | 0.00 | 0.00 | 0.00 | 22 | 1003.9 |
| 20260906163002 | 78 | 174 | 1.0 | 7.0 | 0.00 | 0.00 | 0.00 | 25 | 1003.9 |
| 20260906162003 | 76 | 359 | 0.0 | 4.0 | 0.00 | 0.00 | 0.00 | 38 | 1004.4 |
| 20260906161024 | 75 | 39 | 1.0 | 3.0 | 0.00 | 0.00 | 0.00 | 43 | 1004.1 |
| 20260906160024 | 73 | 58 | 0.0 | 3.0 | 0.00 | 0.00 | 0.00 | 43 | 1004.1 |
| 20260906155003 | 72 | 67 | 0.0 | 11.0 | 0.00 | 0.00 | 0.00 | 47 | 1004.5 |
| 20260906154024 | 71 | 54 | 0.0 | 0.0 | 0.00 | 0.00 | 0.00 | 43 | 1005.0 |
| 20260906153003 | 70 | 54 | 0.0 | 1.0 | 0.00 | 0.00 | 0.00 | 40 | 1005.0 |
| 20260906152004 | 69 | 54 | 0.0 | 2.0 | 0.00 | 0.00 | 0.00 | 40 | 1005.4 |
| 20260906151003 | 67 | 57 | 0.0 | 1.0 | 0.00 | 0.00 | 0.00 | 43 | 1005.3 |
| 20260906150002 | 65 | 57 | 0.0 | 0.0 | 0.00 | 0.00 | 0.00 | 47 | 1005.3 |
| 20260906145003 | 63 | 52 | 0.0 | 0.0 | 0.00 | 0.00 | 0.00 | 48 | 1005.7 |
| 20260906144002 | 61 | 57 | 0.0 | 0.0 | 0.00 | 0.00 | 0.00 | 51 | 1006.1 |
| 20260906142002 | 57 | 91 | 0.0 | 0.0 | 0.00 | 0.00 | 0.00 | 62 | 1006.5 |
| 20260906141004 | 56 | 244 | 0.0 | 0.0 | 0.00 | 0.00 | 0.00 | 62 | 1005.9 |
| 20260906140002 | 54 | 240 | 0.0 | 0.0 | 0.00 | 0.00 | 0.00 | 62 | 1005.9 |
| 20260906135003 | 53 | 242 | 0.0 | 0.0 | 0.00 | 0.00 | 0.00 | 63 | 1006.0 |
| 20260906134002 | 53 | 242 | 0.0 | 0.0 | 0.00 | 0.00 | 0.00 | 62 | 1005.9 |
| 20260906133003 | 52 | 242 | 0.0 | 0.0 | 0.00 | 0.00 | 0.00 | 60 | 1005.9 |
| 20260906132003 | 52 | 242 | 0.0 | 0.0 | 0.00 | 0.00 | 0.00 | 60 | 1005.7 |
| 20260906131002 | 52 | 244 | 0.0 | 0.0 | 0.00 | 0.00 | 0.00 | 61 | 1004.2 |
| 20260906130025 | 52 | 243 | 0.0 | 0.0 | 0.00 | 0.00 | 0.00 | 60 | 1004.2 |
| 20260906125024 | 53 | 243 | 0.0 | 0.0 | 0.00 | 0.00 | 0.00 | 59 | 1003.9 |
| 20260906124024 | 53 | 242 | 0.0 | 0.0 | 0.00 | 0.00 | 0.00 | 59 | 1003.9 |
| 20260906123024 | 53 | 242 | 0.0 | 0.0 | 0.00 | 0.00 | 0.00 | 57 | 1003.9 |
| 20260906122003 | 54 | 242 | 0.0 | 0.0 | 0.00 | 0.00 | 0.00 | 56 | 1003.8 |
| 20260906121002 | 54 | 243 | 0.0 | 0.0 | 0.00 | 0.00 | 0.00 | 55 | 1003.0 |
| 20260906120003 | 54 | 243 | 0.0 | 0.0 | 0.00 | 0.00 | 0.00 | 55 | 1003.0 |
| 20260906115003 | 54 | 243 | 0.0 | 0.0 | 0.00 | 0.00 | 0.00 | 55 | 1002.9 |
| 20260906114003 | 54 | 242 | 0.0 | 0.0 | 0.00 | 0.00 | 0.00 | 55 | 1002.8 |
| 20260906113025 | 54 | 242 | 0.0 | 0.0 | 0.00 | 0.00 | 0.00 | 55 | 1002.8 |
| 20260906112024 | 53 | 242 | 0.0 | 0.0 | 0.00 | 0.00 | 0.00 | 55 | 1003.1 |
| 20260906111003 | 53 | 242 | 0.0 | 0.0 | 0.00 | 0.00 | 0.00 | 55 | 1003.4 |
| 20260906110003 | 52 | 243 | 0.0 | 0.0 | 0.00 | 0.00 | 0.00 | 57 | 1003.4 |
| 20260906105003 | 52 | 242 | 0.0 | 0.0 | 0.00 | 0.00 | 0.00 | 59 | 1003.3 |
| 20260906104003 | 52 | 243 | 0.0 | 0.0 | 0.00 | 0.00 | 0.00 | 59 | 1003.2 |
| 20260906103002 | 52 | 243 | 0.0 | 0.0 | 0.00 | 0.00 | 0.00 | 59 | 1003.2 |
| 20260906102002 | 52 | 242 | 0.0 | 0.0 | 0.00 | 0.00 | 0.00 | 59 | 1002.9 |
| 20260906101003 | 53 | 242 | 0.0 | 0.0 | 0.00 | 0.00 | 0.00 | 58 | 1002.8 |
| 20260906100003 | 53 | 243 | 0.0 | 0.0 | 0.00 | 0.00 | 0.00 | 58 | 1002.8 |
| 20260906095002 | 53 | 243 | 0.0 | 0.0 | 0.00 | 0.00 | 0.00 | 59 | 1002.7 |
| 20260906093003 | 53 | 243 | 0.0 | 0.0 | 0.00 | 0.00 | 0.00 | 58 | 1002.6 |
| 20260906092004 | 53 | 242 | 0.0 | 0.0 | 0.00 | 0.00 | 0.00 | 57 | 1002.4 |
| 20260906091002 | 53 | 240 | 0.0 | 0.0 | 0.00 | 0.00 | 0.00 | 56 | 1002.3 |
| 20260906090003 | 53 | 239 | 0.0 | 0.0 | 0.00 | 0.00 | 0.00 | 56 | 1002.3 |
| 20260906085002 | 54 | 239 | 0.0 | 0.0 | 0.00 | 0.00 | 0.00 | 56 | 1002.3 |
| 20260906084003 | 54 | 239 | 0.0 | 0.0 | 0.00 | 0.00 | 0.00 | 55 | 1002.4 |
| 20260906083003 | 54 | 240 | 0.0 | 0.0 | 0.00 | 0.00 | 0.00 | 56 | 1002.4 |
| 20260906082002 | 54 | 239 | 0.0 | 0.0 | 0.00 | 0.00 | 0.00 | 55 | 1002.3 |
| 20260906081003 | 54 | 240 | 0.0 | 0.0 | 0.00 | 0.00 | 0.00 | 56 | 1002.4 |
| 20260906080024 | 54 | 240 | 0.0 | 0.0 | 0.00 | 0.00 | 0.00 | 56 | 1002.4 |
| 20260906075003 | 54 | 239 | 0.0 | 0.0 | 0.00 | 0.00 | 0.00 | 55 | 1002.5 |
| 20260906074002 | 55 | 237 | 0.0 | 0.0 | 0.00 | 0.00 | 0.00 | 56 | 1002.4 |
| 20260906073003 | 55 | 239 | 0.0 | 0.0 | 0.00 | 0.00 | 0.00 | 55 | 1002.4 |
| 20260906072024 | 55 | 239 | 0.0 | 0.0 | 0.00 | 0.00 | 0.00 | 54 | 1002.3 |
| 20260906071003 | 55 | 239 | 0.0 | 0.0 | 0.00 | 0.00 | 0.00 | 55 | 1002.2 |
| 20260906070002 | 56 | 237 | 0.0 | 0.0 | 0.00 | 0.00 | 0.00 | 54 | 1002.2 |
| 20260906065024 | 56 | 237 | 0.0 | 0.0 | 0.00 | 0.00 | 0.00 | 54 | 1002.2 |
| 20260906064002 | 56 | 239 | 0.0 | 0.0 | 0.00 | 0.00 | 0.00 | 54 | 1001.9 |
| 20260906063004 | 57 | 239 | 0.0 | 0.0 | 0.00 | 0.00 | 0.00 | 54 | 1001.9 |
| 20260906062024 | 57 | 237 | 0.0 | 0.0 | 0.00 | 0.00 | 0.00 | 53 | 1001.8 |
| 20260906061003 | 57 | 237 | 0.0 | 0.0 | 0.00 | 0.00 | 0.00 | 53 | 1002.4 |
| 20260906060003 | 57 | 239 | 0.0 | 3.0 | 0.00 | 0.00 | 0.00 | 52 | 1002.4 |
| 20260906055003 | 57 | 237 | 0.0 | 0.0 | 0.00 | 0.00 | 0.00 | 52 | 1002.4 |
| 20260906054003 | 57 | 237 | 1.0 | 6.0 | 0.00 | 0.00 | 0.00 | 52 | 1002.1 |
| 20260906053003 | 58 | 335 | 0.0 | 0.0 | 0.00 | 0.00 | 0.00 | 52 | 1002.1 |
| 20260906052003 | 58 | 218 | 0.0 | 0.0 | 0.00 | 0.00 | 0.00 | 51 | 1002.0 |
| 20260906051003 | 58 | 218 | 0.0 | 0.0 | 0.00 | 0.00 | 0.00 | 51 | 1002.1 |
| 20260906050004 | 58 | 218 | 0.0 | 0.0 | 0.00 | 0.00 | 0.00 | 51 | 1002.1 |
| 20260906045002 | 58 | 218 | 0.0 | 0.0 | 0.00 | 0.00 | 0.00 | 51 | 1002.1 |
| 20260906044003 | 59 | 218 | 0.0 | 0.0 | 0.00 | 0.00 | 0.00 | 50 | 1001.8 |
| 20260906043002 | 60 | 216 | 0.0 | 0.0 | 0.00 | 0.00 | 0.00 | 49 | 1001.8 |
| 20260906042003 | 60 | 216 | 0.0 | 0.0 | 0.00 | 0.00 | 0.00 | 48 | 1001.8 |
| 20260906041003 | 61 | 216 | 0.0 | 0.0 | 0.00 | 0.00 | 0.00 | 45 | 1002.4 |
| 20260906040003 | 61 | 218 | 0.0 | 0.0 | 0.00 | 0.00 | 0.00 | 44 | 1002.4 |
| 20260906035003 | 62 | 216 | 0.0 | 0.0 | 0.00 | 0.00 | 0.00 | 44 | 1002.2 |
| 20260906034003 | 62 | 216 | 0.0 | 0.0 | 0.00 | 0.00 | 0.00 | 43 | 1001.7 |
| 20260906033025 | 63 | 216 | 0.0 | 0.0 | 0.00 | 0.00 | 0.00 | 42 | 1001.7 |
| 20260906032003 | 64 | 211 | 0.0 | 0.0 | 0.00 | 0.00 | 0.00 | 41 | 1001.6 |
| 20260906031002 | 64 | 211 | 0.0 | 0.0 | 0.00 | 0.00 | 0.00 | 38 | 1002.4 |
| 20260906030004 | 64 | 212 | 0.0 | 0.0 | 0.00 | 0.00 | 0.00 | 38 | 1002.4 |
| 20260906025003 | 64 | 212 | 0.0 | 0.0 | 0.00 | 0.00 | 0.00 | 38 | 1002.4 |
| 20260906024003 | 65 | 180 | 0.0 | 0.0 | 0.00 | 0.00 | 0.00 | 40 | 1001.9 |
| 20260906023003 | 66 | 89 | 0.0 | 0.0 | 0.00 | 0.00 | 0.00 | 40 | 1001.9 |
| 20260906022003 | 66 | 91 | 0.0 | 0.0 | 0.00 | 0.00 | 0.00 | 37 | 1001.9 |
| 20260906021003 | 68 | 65 | 0.0 | 0.0 | 0.00 | 0.00 | 0.00 | 38 | 1002.4 |
| 20260906020024 | 70 | 229 | 0.0 | 0.0 | 0.00 | 0.00 | 0.00 | 33 | 1002.4 |
| 20260906015003 | 71 | 228 | 0.0 | 0.0 | 0.00 | 0.00 | 0.00 | 32 | 1002.3 |
| 20260906014025 | 72 | 226 | 0.0 | 0.0 | 0.00 | 0.00 | 0.00 | 30 | 1002.1 |
| 20260906012002 | 76 | 225 | 0.0 | 1.0 | 0.00 | 0.00 | 0.00 | 28 | 1001.4 |
| 20260906011003 | 79 | 225 | 0.0 | 3.0 | 0.00 | 0.00 | 0.00 | 27 | 1001.4 |
| 20260906010002 | 81 | 244 | 0.0 | 0.0 | 0.00 | 0.00 | 0.00 | 26 | 1001.4 |
| 20260906005003 | 83 | 244 | 0.0 | 7.0 | 0.00 | 0.00 | 0.00 | 22 | 1001.1 |
| 20260906004004 | 85 | 215 | 0.0 | 1.0 | 0.00 | 0.00 | 0.00 | 21 | 1000.7 |
| 20260906003002 | 86 | 218 | 0.0 | 12.0 | 0.00 | 0.00 | 0.00 | 15 | 1000.7 |
| 20260906002003 | 86 | 233 | 2.0 | 6.0 | 0.00 | 0.00 | 0.00 | 17 | 1000.7 |
| 20260906001003 | 86 | 228 | 3.0 | 7.0 | 0.00 | 0.00 | 0.00 | 16 | 1000.4 |
| 20260906000003 | 86 | 227 | 0.0 | 8.0 | 0.00 | 0.00 | 0.00 | 18 | 1000.4 |
| 20260905235003 | 86 | 221 | 0.0 | 3.0 | 0.00 | 0.00 | 0.00 | 20 | 1000.5 |
| 20260905234003 | 85 | 264 | 0.0 | 8.0 | 0.00 | 0.00 | 0.00 | 18 | 1000.9 |